Wind_Speed
22 26 26 26 27 27 28 29 31 29 30 31 29 27 26 26 25 24 24 24 22 17 16 18 17 17 17 16 16 13 11 6 17 16 15 14 13 10 9 8 5 6 9
19 23 25 26 28 28 27 29 32 34 32 27 28 29 25 24 23 24 25 23 23 19 21 20 19 18 17 17 17 15 12 12 22 21 17 16 13 11 10 7 6 5 5
20 23 24 27 28 32 34 33 32 33 34 30 28 27 25 25 22 22 21 22 21 21 20 21 19 20 18 17 16 16 15 17 19 20 19 15 12 9 8 7 5 5 3
16 23 28 29 31 34 35 33 37 31 32 33 31 27 29 26 28 24 22 23 24 25 22 23 20 23 22 21 20 20 18 20 19 18 17 14 10 10 7 8 7 3 4
18 22 25 28 28 31 34 33 33 37 33 30 26 27 25 24 25 25 24 25 27 25 22 19 16 19 16 14 18 20 23 21 18 17 14 12 10 9 7 6 5 5 3
19 20 23 26 28 29 30 31 32 34 34 31 29 28 27 21 26 23 25 24 22 21 20 17 17 20 20 20 22 20 16 18 18 16 14 14 12 9 8 8 7 6 5
15 18 23 27 28 32 35 35 33 32 32 31 28 27 27 23 29 27 26 24 22 22 21 20 19 16 17 20 19 20 17 16 14 12 13 10 13 10 7 7 6 6 3
16 21 24 30 29 32 34 29 27 29 27 29 28 27 24 27 31 30 26 24 23 22 22 21 20 20 18 20 19 19 19 15 13 13 14 12 10 8 5 3 4 3 3
10 16 26 28 31 33 30 28 28 30 29 28 30 28 25 28 33 31 25 25 24 24 22 21 22 22 25 21 22 20 16 17 16 17 16 15 12 11 8 3 5 5 6
14 16 21 27 30 32 31 29 29 28 27 28 27 25 24 28 34 30 27 25 25 23 20 21 22 24 27 23 20 20 19 16 15 14 13 12 9 8 5 8 3 3 2
16 21 23 21 25 28 29 31 31 29 27 25 24 23 24 26 32 29 23 24 26 25 22 19 24 26 26 20 19 18 21 20 15 13 11 9 8 7 5 4 5 4 1
17 24 25 24 20 27 29 29 29 29 28 27 26 23 22 24 31 29 21 24 25 25 24 21 24 29 23 16 17 20 19 17 13 11 10 8 7 5 4 4 3 3 4
15 19 27 27 23 27 29 31 27 28 26 24 24 23 23 22 25 24 22 27 22 22 24 24 27 26 22 17 16 16 16 13 12 11 9 8 6 6 4 3 2 2 2
16 20 24 26 24 25 25 27 27 28 27 25 24 23 24 25 26 25 25 28 24 23 25 27 26 20 17 16 16 16 12 12 12 11 10 8 7 6 5 4 3 2 2
15 19 23 25 26 26 23 23 26 25 25 25 25 28 28 27 29 30 30 28 26 28 31 30 26 20 19 16 15 14 13 12 12 11 11 9 8 7 6 5 4 3 3
16 18 21 25 25 24 23 20 20 20 23 23 25 27 24 24 33 31 30 29 28 35 28 25 21 20 19 18 17 16 14 14 13 12 11 11 10 9 8 6 4 3 3
18 19 19 21 23 24 23 23 19 22 21 22 26 28 27 32 37 35 34 33 32 31 22 21 20 20 19 18 17 16 16 16 15 14 13 12 11 10 10 7 6 4 4
18 22 22 20 21 23 23 22 22 22 21 21 22 27 27 32 37 36 33 30 29 22 20 20 19 20 19 19 18 18 17 17 17 16 15 14 13 12 10 9 8 7 6
21 21 20 21 21 21 21 22 22 22 21 22 23 23 27 32 35 34 35 26 26 23 18 19 19 20 19 19 19 19 19 20 19 17 16 16 15 13 12 11 9 7 6
23 23 22 21 23 21 21 21 22 22 23 23 23 24 29 33 32 32 28 23 23 22 20 19 19 20 20 18 19 19 18 19 19 19 18 17 16 15 14 13 12 10 9
20 24 23 22 22 21 21 21 22 23 22 22 23 26 30 30 28 29 26 23 24 23 23 21 20 22 21 19 19 20 20 20 20 19 19 18 18 17 16 13 13 12 12
21 22 21 21 21 21 21 22 22 22 22 23 23 26 29 23 25 25 25 23 22 22 21 22 18 19 20 22 21 21 23 20 21 21 20 18 18 18 16 15 14 13 12
19 19 19 19 20 21 21 20 21 23 22 22 24 27 29 22 24 24 25 26 25 24 20 22 21 18 20 21 21 21 22 22 22 21 20 18 18 17 16 16 15 13 11
18 17 17 19 20 20 20 20 22 23 23 24 25 26 26 23 25 23 23 26 26 25 24 22 23 20 19 22 23 20 20 20 20 19 19 17 17 16 15 14 12 12 10
19 16 16 19 20 21 21 21 22 21 23 26 25 24 25 23 25 24 24 25 25 25 26 24 23 22 21 21 21 22 20 19 18 17 16 16 13 14 13 12 11 9 9
19 19 18 18 19 19 21 21 22 22 23 25 25 24 25 24 24 23 23 25 24 25 24 25 24 22 23 21 21 21 22 22 20 19 14 12 12 12 11 11 10 9 8
Wind_Direction
217 194 200 205 198 192 187 180 176 174 172 167 167 163 162 164 166 160 158 153 153 175 175 177 176 166 162 165 167 166 181 192 135 147 152 157 156 153 151 148 142 125 79
221 191 194 195 188 180 176 171 173 163 155 160 161 156 157 158 162 154 144 153 162 166 173 171 163 157 155 155 160 161 157 138 143 150 153 156 154 153 152 145 134 127 98
215 186 183 181 177 170 168 164 163 157 152 152 152 152 153 151 152 143 149 155 151 168 170 162 157 153 151 157 152 147 144 140 145 146 145 148 145 147 152 150 147 130 131
204 182 178 174 172 169 161 155 156 153 143 143 150 147 152 152 150 148 160 161 155 164 153 153 151 151 149 150 147 139 140 137 140 139 136 131 133 145 163 162 159 141 138
199 183 179 175 170 161 156 153 150 156 155 145 151 153 160 156 157 163 159 163 164 151 145 148 134 142 140 142 139 137 134 130 136 140 140 146 146 154 160 152 152 151 204
191 180 171 167 163 155 151 147 146 144 148 155 160 160 162 169 167 164 159 152 141 134 133 128 128 138 143 142 143 145 144 142 141 146 153 152 143 152 161 151 167 174 191
158 154 154 151 152 150 152 157 152 148 149 151 158 162 162 170 161 157 150 145 141 142 142 139 135 139 134 141 137 135 129 131 134 144 138 151 144 157 152 164 164 175 197
166 154 152 150 147 146 147 145 144 147 146 151 156 161 159 162 162 155 150 146 143 145 145 145 142 140 141 131 127 116 109 102 106 118 124 127 131 139 165 172 175 174 161
149 160 163 159 152 149 146 147 146 146 154 155 162 164 157 163 164 153 149 143 144 142 144 146 148 146 137 138 131 126 117 106 125 136 138 146 153 155 151 171 174 208 206
163 162 162 158 155 152 148 149 147 151 155 158 160 160 161 159 160 154 146 141 140 139 141 145 150 148 143 142 140 139 131 132 130 119 109 109 109 124 145 116 105 233 210
179 165 161 157 156 151 147 149 157 156 152 153 151 152 154 159 162 154 152 151 152 148 144 139 156 155 146 143 149 151 142 137 129 126 116 112 105 96 85 82 98 84 160
156 160 160 157 158 155 154 157 154 153 151 151 142 143 149 158 160 157 152 154 149 146 147 148 155 154 147 146 142 151 150 131 130 135 134 134 131 129 116 104 123 112 163
150 154 159 156 159 160 160 158 150 142 149 148 149 145 148 152 160 158 157 156 147 148 151 156 154 151 153 151 150 157 145 135 150 147 151 145 145 155 139 112 73 55 95
157 154 155 156 158 160 163 159 149 154 157 159 156 153 154 156 160 159 151 150 148 148 151 149 142 144 141 143 144 148 148 157 157 158 153 153 153 139 149 161 179 196 233
162 152 159 160 159 153 156 162 161 165 164 164 163 160 163 164 168 163 156 153 152 152 142 141 143 147 146 149 157 160 161 163 163 159 157 165 167 168 172 176 184 199 238
164 161 159 161 161 160 153 146 159 160 161 163 162 162 168 165 162 161 156 154 156 150 144 150 155 159 161 167 168 169 173 173 175 174 176 179 181 184 183 185 192 215 248
175 164 161 163 160 157 153 149 131 156 165 163 164 165 163 166 166 160 159 161 161 151 151 160 164 170 171 174 177 181 184 187 183 186 189 189 190 190 186 193 205 226 249
173 162 162 166 163 162 160 156 151 147 141 146 161 160 168 170 166 163 161 154 158 168 171 172 174 177 180 184 186 189 190 187 191 193 195 195 195 194 196 209 216 231 255
160 162 162 160 160 157 153 149 149 151 146 145 150 156 168 167 165 164 161 164 169 178 177 178 184 183 191 193 192 192 189 187 193 196 200 201 200 206 212 218 226 223 229
162 160 154 154 149 145 148 145 149 153 152 156 161 160 161 160 163 166 172 170 173 181 188 186 187 188 194 203 187 189 188 190 192 199 206 206 209 211 223 222 223 223 220
157 156 157 155 155 151 152 156 158 155 156 160 167 168 168 170 174 173 176 176 179 188 193 199 195 191 195 200 190 192 200 200 200 202 209 213 214 216 220 230 226 225 238
156 156 157 157 155 157 161 161 157 154 159 164 166 166 170 173 172 174 178 183 187 191 195 199 202 197 193 199 202 197 199 203 202 207 209 214 216 219 220 226 228 227 233
155 155 155 157 158 156 155 155 154 159 165 167 160 165 174 175 176 178 182 186 191 196 197 198 204 198 199 202 202 203 200 205 210 212 211 215 219 221 220 226 224 221 227
160 159 160 156 157 159 160 161 163 170 169 158 161 170 176 176 179 182 181 190 193 204 204 199 204 199 198 202 203 202 205 212 213 216 217 217 222 217 220 217 218 212 221
173 169 164 161 162 164 161 165 169 170 167 163 167 176 179 176 183 186 189 194 194 202 203 204 204 202 204 208 204 206 209 210 206 205 213 218 221 207 203 202 207 205 208
177 175 171 167 167 167 167 169 171 170 166 165 168 177 181 180 182 186 189 193 192 196 198 204 205 206 207 209 210 207 207 211 214 212 204 198 193 185 193 197 201 213 209
Height
670 671 679 684 688 691 695 699 703 710 716 720 730 736 743 750 756 761 768 770 774 786 793 798 803 802 805 809 813 817 822 821 829 842 850 854 857 861 862 865 867 866 865
664 667 672 678 682 687 692 696 701 704 709 721 728 733 744 749 756 759 760 770 776 784 793 797 800 799 804 809 813 816 821 823 832 841 848 852 854 858 861 866 867 868 867
663 662 667 673 678 681 685 692 699 706 708 717 725 734 742 750 755 758 767 772 775 787 793 794 796 799 803 809 812 816 821 827 833 840 845 850 853 858 862 863 866 867 869
661 660 664 668 674 677 683 689 695 704 707 713 722 734 743 749 751 759 772 770 774 787 788 791 795 796 802 805 809 814 821 827 834 840 844 849 851 856 859 861 865 866 868
658 658 660 665 673 677 681 688 696 704 711 710 726 736 744 746 758 764 767 772 784 781 785 794 797 800 805 810 812 814 821 825 833 839 844 849 851 857 862 858 863 865 868
652 655 659 665 671 676 680 688 695 700 707 714 727 735 741 755 759 764 769 778 778 780 788 795 798 804 808 810 813 818 823 825 830 835 841 843 850 857 860 858 862 864 866
653 655 659 664 669 674 680 689 694 702 709 718 729 737 746 757 759 764 768 773 775 781 788 794 800 806 810 814 817 819 824 827 828 834 841 849 848 854 858 860 860 860 862
654 656 660 663 669 675 681 689 696 704 712 721 731 740 748 754 757 763 767 771 775 782 788 794 799 806 811 813 819 822 826 831 834 837 840 848 850 854 857 859 859 859 862
655 659 660 664 668 675 683 692 699 708 717 724 732 741 747 752 758 762 766 770 776 781 788 793 800 805 809 814 816 823 830 831 836 838 839 844 849 851 854 857 857 858 859
657 661 664 666 670 676 683 693 701 710 717 726 734 741 747 751 757 762 764 768 775 782 789 796 800 802 806 812 817 823 829 835 837 840 843 847 849 852 855 855 857 857 858
659 661 667 671 675 680 686 694 704 712 719 727 734 741 746 751 757 761 766 770 776 782 789 796 801 806 807 814 818 822 827 832 838 842 845 849 852 854 856 856 856 858 859
661 664 669 674 679 685 691 698 704 711 720 728 733 741 747 753 757 763 765 770 775 781 787 794 803 804 809 816 819 823 828 832 839 844 848 851 853 855 856 856 856 858 858
663 667 671 674 681 688 692 696 703 711 720 726 732 738 746 751 758 762 765 771 778 785 789 794 803 803 812 816 822 826 829 834 840 844 848 851 853 854 854 856 857 858 858
664 669 672 677 680 687 692 697 702 709 716 723 729 736 744 750 756 762 766 770 776 784 789 798 802 809 814 817 822 828 831 835 839 843 846 850 852 853 855 857 858 859 859
664 668 673 677 683 686 691 695 701 707 711 717 723 729 737 744 750 756 762 768 776 784 789 795 801 809 813 818 824 827 831 835 838 841 844 848 851 853 855 856 857 857 857
663 668 671 676 680 687 690 696 702 707 712 718 722 728 737 742 748 756 762 770 778 781 787 795 800 806 811 817 821 825 829 833 836 840 843 846 849 851 853 854 855 856 856
662 666 670 674 678 683 689 693 700 710 715 719 724 730 735 740 748 755 762 768 772 781 787 793 798 804 809 814 818 822 826 831 834 838 841 843 846 848 850 852 853 854 854
662 664 669 673 677 682 687 692 698 705 712 720 727 730 736 742 750 755 762 768 775 781 786 792 797 802 805 809 814 819 823 827 831 834 838 840 843 845 848 849 850 851 851
659 664 668 673 677 681 685 692 698 706 712 719 727 734 739 743 751 756 763 766 771 777 784 790 795 799 803 806 810 815 819 823 827 831 834 837 840 842 843 845 846 847 848
658 662 666 672 676 680 686 690 698 704 711 717 725 730 737 744 750 755 760 764 769 775 782 787 792 796 800 803 807 811 816 819 823 827 830 833 836 838 839 840 842 843 844
658 661 667 672 677 681 686 692 698 703 709 716 723 728 732 739 746 751 757 761 767 774 779 784 788 791 795 799 803 807 812 815 819 822 826 828 830 832 834 836 837 838 839
659 663 668 672 676 681 687 692 696 701 708 715 721 727 732 738 743 748 754 760 765 771 776 780 784 787 790 795 799 802 807 810 813 817 820 822 824 827 829 831 832 833 834
661 664 668 673 677 682 687 691 695 702 708 713 718 724 730 735 741 746 751 757 763 768 772 776 780 783 787 791 795 798 801 805 808 811 814 816 819 821 823 825 826 828 830
664 666 669 672 676 681 686 690 696 701 706 711 716 722 728 733 738 743 748 753 759 764 769 773 777 780 784 787 791 795 798 801 804 806 809 811 813 815 818 820 822 824 826
665 668 670 672 676 680 685 690 695 699 704 709 715 721 726 730 736 741 745 751 756 761 766 770 774 778 781 785 788 791 794 797 800 802 804 807 809 811 814 816 819 821 824
666 669 671 674 677 680 684 688 693 698 702 707 712 718 723 727 733 738 743 748 753 758 762 766 770 774 778 781 784 787 789 792 795 798 800 803 805 808 811 814 816 819 821